CZ-4 DEB, 26143

Orbit data source: Space-Track

CZ-4 DEB, 26143 is space debris in SSO originally from a launch on Thu, 14 Oct 1999 UTC launched from the Taiyaun Space Center, China (TSC). Debris objects in space refer to the collection of defunct objects orbiting the Earth. Examples of debris include non-operational satellites, rocket bodies, and fragments generated from explosions, collisions, or faulty payload assembly.

Loading next visibility...
Identifier
26143, 1999-057AF
Orbit
SSO
Country
Flag of CNCN / PRC
Related business
Manufacturer
Unknown
Mission
Spacecraft
Bus & Motor
Unknown
Mass
Unknown
Launch date (UTC)
1999-10-14 (26 years ago)
Launch vehicle
Unknown
Launch site
Taiyaun Space Center, China (TSC)
Object type
Payload
Rocket body
Debris
Shape & HBR
Unknown shape, 0.1 m
Radar Cross Section
Small (<0.1 m²)

Expand to show TLE details & history
Last TLE update: 15 hours ago

TLE from 15 hours ago
0 CZ-4 DEB
1 26143U 99057AF  25310.88074044  .00000865  00000-0  73839-3 0  9994
2 26143  98.9697 288.5888 0476766 329.9015  54.4972 13.47400046257787
Epoch: 2025-11-06T21:08Z
TLE epoch observation values (Epoch: 2025-11-06T21:08:15.974Z)
Latitude
28.65918°
Longitude
-79.73332°
Altitude
890.424 km
Speed
7.506 km/s
True Right ascension
18h 54m 39s
True Declination
28° 31' 02"
Sunlit
Object was in daylight at epoch
Visualization orbit readout
Latitude
Unknown
Longitude
Unknown
Altitude
Unknown
Speed
Unknown
Apparent Right ascension
Unknown
Apparent Declination
Unknown
Sunlit
N/A
Visualization observer readout
Local Sidereal Time
08:10:50
Azimuth
Unknown
Elevation
Unknown
Doppler factor
Unknown
Orbital elements
Apogee altitude
1,434.635 km
Perigee altitude
723.563 km
Semi-major axis
7,457.236 km
Eccentricity
0.04768
Inclination
98.9697°
RAAN
288.5888°
Arg. of periapsis
329.9015°
True anomaly
59.09907°
Mean anomaly
54.4972°
Eccentric anomaly
56.78251°
Mean motion
3.37036 °/min
Orbital period
106.81 mins
BSTAR
0.00073839
Loading maneuver chart data...
Computing Atmospheric mass density...

Documentation

Showing up to 5 results
|